• Em Portugal
  • Lista de países
  • Para 7 dias
  • Temperatura da água
  • Mapas de satélite
  • Mapa do tempo
  • Widgets de tempo
  • user-avatar
    Iniciar Sessão

    Previsão horária em Czerna

    Hoje, 23 Abril, Segunda-feira

    Tempo Temperatura Precipitação Vento Pressão Humidade
    00:00 +15°C° 0,2 mm 2 m/s 741 mmHg 73%
    01:00 +15°C° 0 mm 2 m/s 741 mmHg 72%
    02:00 +15°C° 0,2 mm 2 m/s 741 mmHg 74%
    03:00 +15°C° 0,2 mm 2 m/s 740 mmHg 76%
    04:00 +14°C° 0,2 mm 3 m/s 740 mmHg 78%
    05:00 +16°C° 0 mm 3 m/s 740 mmHg 77%
    06:00 +17°C° 0 mm 3 m/s 740 mmHg 76%
    07:00 +17°C° 0 mm 2 m/s 741 mmHg 75%
    08:00 +19°C° 0 mm 3 m/s 741 mmHg 68%
    09:00 +21°C° 0 mm 3 m/s 741 mmHg 62%
    10:00 +24°C° 0 mm 3 m/s 741 mmHg 55%
    11:00 +23°C° 0,2 mm 4 m/s 741 mmHg 53%
    12:00 +25°C° 0,2 mm 4 m/s 740 mmHg 52%
    13:00 +25°C° 0,2 mm 5 m/s 740 mmHg 51%
    14:00 +23°C° 0,5 mm 5 m/s 740 mmHg 58%
    15:00 +21°C° 0,5 mm 4 m/s 740 mmHg 65%
    16:00 +20°C° 0,5 mm 4 m/s 740 mmHg 72%
    17:00 +19°C° 0,3 mm 4 m/s 740 mmHg 76%
    18:00 +18°C° 0,3 mm 3 m/s 740 mmHg 81%
    19:00 +17°C° 0,3 mm 3 m/s 741 mmHg 85%
    20:00 +16°C° 0 mm 3 m/s 741 mmHg 88%
    21:00 +15°C° 0 mm 2 m/s 741 mmHg 90%
    22:00 +14°C° 0 mm 2 m/s 742 mmHg 92%
    23:00 +13°C° 0 mm 2 m/s 742 mmHg 93%

    Amanhã, 24 Abril, Terça-feira

    Tempo Temperatura Precipitação Vento Pressão Humidade
    00:00 +12°C° 0 mm 2 m/s 742 mmHg 93%
    01:00 +12°C° 0 mm 1 m/s 743 mmHg 94%
    02:00 +10°C° 0 mm 2 m/s 743 mmHg 94%
    03:00 +10°C° 0 mm 2 m/s 743 mmHg 94%
    04:00 +9°C° 0 mm 2 m/s 743 mmHg 93%
    05:00 +10°C° 0 mm 2 m/s 743 mmHg 89%
    06:00 +12°C° 0 mm 2 m/s 743 mmHg 84%
    07:00 +13°C° 0 mm 2 m/s 743 mmHg 80%
    08:00 +14°C° 0 mm 3 m/s 743 mmHg 73%
    09:00 +15°C° 0 mm 4 m/s 743 mmHg 66%
    10:00 +18°C° 0 mm 4 m/s 743 mmHg 60%
    11:00 +19°C° 0 mm 5 m/s 743 mmHg 56%
    12:00 +20°C° 0 mm 5 m/s 743 mmHg 52%
    13:00 +20°C° 0 mm 5 m/s 742 mmHg 48%
    14:00 +20°C° 0 mm 5 m/s 742 mmHg 48%
    15:00 +20°C° 0 mm 5 m/s 742 mmHg 48%
    16:00 +20°C° 0 mm 5 m/s 742 mmHg 47%
    17:00 +19°C° 0 mm 4 m/s 742 mmHg 54%
    18:00 +17°C° 0 mm 3 m/s 742 mmHg 61%
    19:00 +15°C° 0 mm 2 m/s 742 mmHg 68%
    20:00 +14°C° 0 mm 2 m/s 742 mmHg 74%
    21:00 +13°C° 0 mm 1 m/s 742 mmHg 79%
    22:00 +12°C° 0 mm 1 m/s 742 mmHg 85%
    23:00 +12°C° 0 mm 1 m/s 742 mmHg 86%

    Depois de amanhã, 25 Abril, Quarta-feira

    Tempo Temperatura Precipitação Vento Pressão Humidade
    00:00 +12°C° 0 mm 1 m/s 742 mmHg 88%
    01:00 +11°C° 0 mm 1 m/s 742 mmHg 90%
    02:00 +11°C° 0 mm 1 m/s 742 mmHg 89%
    03:00 +10°C° 0 mm 2 m/s 741 mmHg 89%
    04:00 +10°C° 0 mm 2 m/s 741 mmHg 88%
    05:00 +11°C° 0 mm 3 m/s 741 mmHg 83%
    06:00 +13°C° 0 mm 3 m/s 741 mmHg 78%
    07:00 +14°C° 0 mm 4 m/s 740 mmHg 73%
    08:00 +16°C° 0 mm 5 m/s 740 mmHg 67%
    09:00 +17°C° 0 mm 5 m/s 740 mmHg 61%
    10:00 +20°C° 0 mm 6 m/s 740 mmHg 55%
    11:00 +21°C° 0,1 mm 6 m/s 740 mmHg 53%
    12:00 +22°C° 0,1 mm 7 m/s 739 mmHg 51%
    13:00 +22°C° 0,1 mm 7 m/s 739 mmHg 49%
    14:00 +22°C° 0,2 mm 7 m/s 738 mmHg 52%
    15:00 +21°C° 0,2 mm 6 m/s 738 mmHg 56%
    16:00 +21°C° 0,2 mm 6 m/s 738 mmHg 59%
    17:00 +19°C° 0,3 mm 5 m/s 738 mmHg 67%
    18:00 +17°C° 0,3 mm 4 m/s 738 mmHg 75%
    19:00 +14°C° 0,3 mm 3 m/s 738 mmHg 83%
    20:00 +14°C° 0 mm 3 m/s 739 mmHg 84%
    21:00 +13°C° 0 mm 3 m/s 739 mmHg 85%
    22:00 +13°C° 0 mm 3 m/s 740 mmHg 87%
    23:00 +12°C° 0 mm 3 m/s 740 mmHg 87%

    26 Abril, Quinta-feira

    Tempo Temperatura Precipitação Vento Pressão Humidade
    00:00 +11°C° 0 mm 3 m/s 740 mmHg 88%
    01:00 +10°C° 0 mm 2 m/s 740 mmHg 89%
    02:00 +10°C° 0 mm 2 m/s 741 mmHg 89%
    03:00 +9°C° 0 mm 2 m/s 741 mmHg 88%
    04:00 +9°C° 0 mm 2 m/s 741 mmHg 87%
    05:00 +10°C° 0,1 mm 2 m/s 741 mmHg 83%
    06:00 +12°C° 0,1 mm 2 m/s 741 mmHg 80%
    07:00 +12°C° 0,1 mm 2 m/s 741 mmHg 76%
    08:00 +12°C° 0,1 mm 3 m/s 741 mmHg 70%
    09:00 +13°C° 0,1 mm 5 m/s 741 mmHg 64%
    10:00 +14°C° 0,1 mm 6 m/s 741 mmHg 58%
    11:00 +15°C° 0 mm 6 m/s 741 mmHg 54%
    12:00 +15°C° 0 mm 6 m/s 741 mmHg 49%
    13:00 +15°C° 0 mm 6 m/s 741 mmHg 44%
    14:00 +15°C° 0 mm 6 m/s 741 mmHg 45%
    15:00 +14°C° 0 mm 6 m/s 741 mmHg 46%
    16:00 +14°C° 0 mm 6 m/s 741 mmHg 47%
    17:00 +13°C° 0 mm 5 m/s 741 mmHg 52%
    18:00 +11°C° 0 mm 4 m/s 741 mmHg 56%
    19:00 +10°C° 0 mm 3 m/s 742 mmHg 61%
    20:00 +9°C° 0 mm 3 m/s 742 mmHg 65%
    21:00 +8°C° 0 mm 2 m/s 743 mmHg 69%
    22:00 +7°C° 0 mm 2 m/s 743 mmHg 72%
    23:00 +7°C° 0 mm 2 m/s 743 mmHg 74%

    27 Abril, Sexta-feira

    Tempo Temperatura Precipitação Vento Pressão Humidade
    00:00 +6°C° 0 mm 2 m/s 743 mmHg 75%
    01:00 +6°C° 0 mm 2 m/s 743 mmHg 76%
    02:00 +6°C° 0 mm 2 m/s 743 mmHg 78%
    03:00 +5°C° 0 mm 2 m/s 743 mmHg 81%
    04:00 +5°C° 0 mm 2 m/s 743 mmHg 83%
    05:00 +6°C° 0 mm 2 m/s 744 mmHg 78%
    06:00 +7°C° 0 mm 2 m/s 744 mmHg 74%
    07:00 +8°C° 0 mm 3 m/s 744 mmHg 70%
    08:00 +10°C° 0 mm 3 m/s 744 mmHg 62%
    09:00 +12°C° 0 mm 2 m/s 744 mmHg 54%
    10:00 +14°C° 0 mm 2 m/s 744 mmHg 47%
    11:00 +14°C° 0 mm 2 m/s 743 mmHg 45%
    12:00 +15°C° 0 mm 2 m/s 743 mmHg 43%
    13:00 +16°C° 0 mm 2 m/s 743 mmHg 41%
    14:00 +16°C° 0 mm 2 m/s 742 mmHg 41%
    15:00 +16°C° 0 mm 2 m/s 742 mmHg 41%
    16:00 +16°C° 0 mm 1 m/s 742 mmHg 41%
    17:00 +15°C° 0 mm 1 m/s 742 mmHg 47%
    18:00 +14°C° 0 mm 1 m/s 741 mmHg 53%
    19:00 +13°C° 0 mm 2 m/s 741 mmHg 58%
    20:00 +12°C° 0 mm 2 m/s 741 mmHg 61%
    21:00 +10°C° 0 mm 2 m/s 741 mmHg 64%
    22:00 +9°C° 0 mm 2 m/s 741 mmHg 66%
    23:00 +9°C° 0 mm 2 m/s 741 mmHg 67%

    28 Abril, Sábado

    Tempo Temperatura Precipitação Vento Pressão Humidade
    00:00 +9°C° 0 mm 2 m/s 740 mmHg 68%
    01:00 +9°C° 0 mm 2 m/s 740 mmHg 68%
    02:00 +9°C° 0 mm 2 m/s 740 mmHg 68%
    03:00 +9°C° 0 mm 3 m/s 739 mmHg 67%
    04:00 +9°C° 0 mm 3 m/s 739 mmHg 66%
    05:00 +10°C° 0 mm 3 m/s 739 mmHg 66%
    06:00 +11°C° 0 mm 3 m/s 739 mmHg 66%
    07:00 +12°C° 0 mm 3 m/s 739 mmHg 66%
    08:00 +15°C° 0 mm 2 m/s 739 mmHg 62%
    09:00 +17°C° 0 mm 2 m/s 739 mmHg 57%
    10:00 +19°C° 0 mm 2 m/s 740 mmHg 53%
    11:00 +20°C° 0 mm 2 m/s 740 mmHg 50%
    12:00 +21°C° 0 mm 2 m/s 739 mmHg 47%
    13:00 +23°C° 0 mm 2 m/s 739 mmHg 44%
    14:00 +23°C° 0 mm 2 m/s 739 mmHg 45%
    15:00 +23°C° 0 mm 2 m/s 739 mmHg 46%
    16:00 +23°C° 0 mm 2 m/s 739 mmHg 47%
    17:00 +20°C° 0 mm 2 m/s 739 mmHg 54%
    18:00 +19°C° 0 mm 1 m/s 739 mmHg 60%
    19:00 +18°C° 0 mm 1 m/s 739 mmHg 66%
    20:00 +16°C° 0 mm 1 m/s 739 mmHg 70%
    21:00 +15°C° 0 mm 1 m/s 740 mmHg 73%
    22:00 +14°C° 0 mm 1 m/s 740 mmHg 77%
    23:00 +13°C° 0 mm 1 m/s 740 mmHg 79%
    Mostrar mais